STARLINK-11293, 61249

Orbit data source: Space-Track

STARLINK-11293, 61249 is a payload satellite owned by SpaceX/Seattle (US) in LEO that was launched on Wed, 25 Sep 2024 UTC via an FALCON 9 launch vehicle from the Air Force Western Test Range (AFWTR). Payload-class satellites include a variety of spacecraft equipped with specific instruments for various scientific and technological missions. These include communications satellites like Starlink; space stations such as the ISS; scientific satellites like the Hubble; Earth observation satellites from companies like Planet Labs, Umbra, and HawkEye 360; GPS; miniature CubeSats for education and research; and military/defense satellites.

Loading next visibility...
Identifier
61249, 2024-175G
Orbit
LEO
Last TLE update
20 hours ago
Origin
Manufacturer
SpaceX/Seattle
Mission
Operational Commercial Communications
Bus & Motor
STARLINK V2M, Unknown motor
Mass
730 kg wet, ~700 kg dry
Launch date (UTC)
2024-09-25 (9 months ago)
Launch vehicle
FALCON 9
Launch site
Air Force Western Test Range (AFWTR)
Object type
Payload
Rocket body
Debris
Shape & HBR
Box + 2 Pan, 29 m
Radar Cross Section
36.964 m², Large (>1 m²)

Expand to show TLE details & history

TLE from 20 hours ago
0 STARLINK-11293
1 61249U 24175G   25183.36013607  .00001224  00000-0  14960-4 0  9999
2 61249  53.1594 209.9869 0001189  93.0953 267.0201 15.69704728 44052
Epoch: 2025-07-02T08:38Z
TLE epoch observation values (Epoch: 2025-07-02T08:38:35.756Z)
Latitude
-0.00002°
Longitude
159.69555°
Altitude
360.699 km
Speed
7.694 km/s
True Right ascension
13h 59m 56s
True Declination
0° 00' 00"
Sunlit
Object was in daylight at epoch
Visualization orbit readout
Latitude
49.61289°
Longitude
-143.31222°
Altitude
364.718 km
Speed
7.697 km/s
Apparent Right ascension
00h 27m 26s
Apparent Declination
33° 30' 59"
Sunlit
Object is in daylight
Visualization observer readout
Local Sidereal Time
16:34:08
Azimuth
47.295° ENE
Elevation
2.918°
Doppler factor
1
Orbital elements
Apogee altitude
360.804 km
Perigee altitude
359.201 km
Semi-major axis
6,738.14 km
Eccentricity
0.00012
Inclination
53.1594°
RAAN
209.9869°
Arg. of periapsis
93.0953°
True anomaly
Unknown
Mean anomaly
267.0201°
Eccentric anomaly
Unknown
Mean motion
3.92404 °/min
Orbital period
91.74 mins
BSTAR
0.00001496
Loading maneuver chart data...
Loading SW <> Apogee altitude chart data...
Loading historical data...
Loading historical data...
Loading historical data...
Loading historical data...
Loading historical data...
Loading historical data...
Loading historical data...

STARLINK-11293 Visibility forecast

Observer location: undefined°, undefined°

Span
Click to sort rows by Start time (UTC) header in descending order
Start Az.
Max El. time (UTC)
Max El. Az.
Max El.
End time (UTC)
End Az.
4 mins2025-07-03 11:07:43.596Z318.326° NNW2025-07-03 11:08:43.596Z336.925° NNW39.992°2025-07-03 11:11:43.596Z124.215° SE
4 mins2025-07-04 03:36:43.596Z186.806° SSW2025-07-04 03:37:43.596Z154.75° SSE29.009°2025-07-04 03:40:43.596Z66.914° ENE
|